Orbital Elements
Epoch 2005 Nov. 6.0 TT = JDT 2453680.5
T 2005 Nov. 1.91869 TT Rudenko
q 2.0661732 (2000.0) P Q
n 0.18750034 Peri. 244.76245 +0.91024728 +0.26304398
a 3.0232078 Node 98.63667 -0.15244795 +0.93093880
e 0.3165626 Incl. 18.87142 -0.38497990 +0.25329986
P 5.26
From 82 observations 2002 Jan. 9-2021 Oct. 7, mean residual 0".3.
|